Change the Weather History Date:

Wednesday, January 22, 2014

  Actual Average (KJMS) Record (KJMS)
Temperature  
Mean Temperature 0 °F 10 °F  
Max Temperature 10 °F 20 °F 51 °F (1942)
Min Temperature -14 °F 0 °F -35 °F (1937)
Degree Days  
Heating Degree Days 66 55  
Month to date heating degree days 1208  
Since 1 July heating degree days 4868  
Cooling Degree Days 0 0  
Month to date cooling degree days 0  
Year to date cooling degree days 0  
Moisture  
Dew Point -10 °F    
Average Humidity 81    
Maximum Humidity 100    
Minimum Humidity 70    
Precipitation  
Precipitation 0.13 in 0.01 in 0.80 in (1982)
Month to date precipitation 0.34  
Year to date precipitation 0.34  
Sea Level Pressure  
Sea Level Pressure 30.35 in    
Wind  
Wind Speed 19 mph (NNW)    
Max Wind Speed 31 mph    
Max Gust Speed 40 mph    
Visibility 6 miles    
Events Fog , Rain , Snow    
T = Trace of Precipitation, MM = Missing Value Source: NWS Daily Summary

Daily Weather History Graph

Daily Weather History Graph

Search for Another Location

Airport or City:

Trip Planner

Search our weather history database for the weather conditions in past years. The results will help you decide how hot, cold, wet, or windy it might be!

Date:

Astronomy

Jan. 22, 2014 Rise Set
Actual Time 8:09 AM CST 5:19 PM CST
Civil Twilight 7:35 AM CST 5:52 PM CST
Nautical Twilight 6:58 AM CST 6:30 PM CST
Astronomical Twilight 6:21 AM CST 7:06 PM CST
Moon No Moon Rise 10:43 AM CST (1/22)
Length of Visible Light 10h 17m
Length of Day
9h 09m
Waning Gibbous, 65% of the Moon is Illuminated
Jan 22
Waning Gibbous
Jan 23
Last Quarter
Jan 30
New
Feb 6
First Quarter
Feb 14
Full

Hourly Weather History & Observations

Time (CST) Temp. Windchill Dew Point Humidity Pressure Visibility Wind Dir Wind Speed Gust Speed Precip Events Conditions
12:15 AM 6.8 °F -6.9 °F 5.0 °F 92% 30.01 in 10.0 mi WNW 9.2 mph - N/A Snow Light Snow
12:35 AM 6.8 °F -6.9 °F 5.0 °F 92% 30.00 in 10.0 mi WSW 9.2 mph - N/A Snow Light Snow
12:55 AM 6.8 °F -7.8 °F 5.0 °F 92% 29.99 in 10.0 mi West 10.4 mph - N/A Snow Light Snow
1:15 AM 8.6 °F -6.3 °F 6.8 °F 92% 29.98 in 10.0 mi NW 11.5 mph - N/A Snow Light Snow
1:35 AM 8.6 °F -7.0 °F 6.8 °F 92% 29.99 in 10.0 mi WNW 12.7 mph - N/A Snow Light Snow
1:55 AM 8.6 °F -7.0 °F 6.8 °F 92% 29.99 in 6.0 mi WNW 12.7 mph - 0.01 in Snow Light Snow
2:15 AM 10.4 °F -6.6 °F 8.6 °F 92% 30.00 in 5.0 mi NW 16.1 mph 20.7 mph 0.02 in Snow Light Snow
2:35 AM 10.4 °F -8.6 °F 8.6 °F 92% 30.00 in 2.5 mi NNW 20.7 mph 25.3 mph 0.03 in Snow Light Snow
2:55 AM 8.6 °F -11.9 °F 8.6 °F 100% 30.02 in 0.5 mi NNE 23.0 mph - 0.07 in Snow Snow
3:15 AM 6.8 °F -15.9 °F 5.0 °F 92% 30.02 in 1.0 mi North 27.6 mph - N/A Snow Light Snow
3:55 AM 5.0 °F -17.1 °F 1.4 °F 85% 30.06 in 1.0 mi North 24.2 mph 29.9 mph 0.03 in Snow Light Snow
4:15 AM 3.2 °F -21.1 °F 1.4 °F 92% 30.08 in 0.5 mi North 28.8 mph 34.5 mph N/A Rain Light Freezing Rain
4:35 AM 1.4 °F -23.5 °F -0.4 °F 92% 30.10 in 0.5 mi North 28.8 mph 34.5 mph 0.01 in Rain Light Freezing Rain
4:55 AM -0.4 °F -26.4 °F -2.2 °F 92% 30.12 in 1.0 mi North 29.9 mph 36.8 mph 0.01 in Rain Light Freezing Rain
5:15 AM -0.4 °F -26.7 °F -4.0 °F 85% 30.13 in 1.0 mi North 31.1 mph 38.0 mph N/A Rain Light Freezing Rain
5:35 AM -2.2 °F -28.0 °F -5.8 °F 85% 30.15 in 1.0 mi North 27.6 mph 35.7 mph 0.01 in Rain Light Freezing Rain
5:55 AM -4.0 °F -30.4 °F -7.6 °F 85% 30.17 in 1.0 mi North 27.6 mph 40.3 mph 0.01 in Rain Light Freezing Rain
6:15 AM -4.0 °F -31.3 °F -9.4 °F 78% 30.19 in 0.8 mi North 29.9 mph 39.1 mph N/A Rain Light Freezing Rain
6:35 AM -5.8 °F -34.1 °F -9.4 °F 84% 30.21 in 1.0 mi North 31.1 mph 38.0 mph N/A Rain Light Freezing Rain
6:55 AM -7.6 °F -32.3 °F -11.2 °F 84% 30.23 in 2.5 mi North 20.7 mph 24.2 mph N/A   Mostly Cloudy
7:15 AM -7.6 °F -34.4 °F -11.2 °F 84% 30.24 in 1.2 mi North 25.3 mph 34.5 mph N/A Rain Light Freezing Rain
7:35 AM -7.6 °F -34.8 °F -11.2 °F 84% 30.25 in 1.8 mi North 26.5 mph 32.2 mph N/A   Overcast
7:55 AM -7.6 °F -33.9 °F - N/A% 30.26 in 0.8 mi North 24.2 mph - N/A Rain Light Freezing Rain
8:15 AM -9.4 °F -37.3 °F -13.0 °F 84% 30.28 in 0.5 mi North 26.5 mph 32.2 mph N/A Fog Light Freezing Fog
8:35 AM -9.4 °F -38.2 °F -13.0 °F 84% 30.30 in 0.5 mi North 28.8 mph 35.7 mph N/A Rain Light Freezing Rain
8:55 AM -9.4 °F -36.8 °F -13.0 °F 84% 30.32 in 0.5 mi North 25.3 mph 33.4 mph N/A Rain Light Freezing Rain
9:15 AM -9.4 °F -36.8 °F -13.0 °F 84% 30.33 in 0.8 mi North 25.3 mph 34.5 mph N/A   Overcast
9:35 AM -9.4 °F -37.3 °F -13.0 °F 84% 30.34 in 0.5 mi NNW 26.5 mph 40.3 mph N/A Rain Light Freezing Rain
9:55 AM -9.4 °F -36.3 °F -14.8 °F 77% 30.36 in 0.8 mi North 24.2 mph - N/A   Haze
10:15 AM -9.4 °F -37.3 °F -14.8 °F 77% 30.37 in 0.8 mi NNW 26.5 mph 32.2 mph N/A   Haze
10:35 AM -9.4 °F -37.7 °F -14.8 °F 77% 30.38 in 0.8 mi North 27.6 mph - N/A   Haze
10:55 AM -9.4 °F -37.3 °F -13.0 °F 84% 30.40 in 1.0 mi North 26.5 mph 32.2 mph N/A   Overcast
11:15 AM -9.4 °F -35.8 °F -13.0 °F 84% 30.41 in 1.0 mi NNW 23.0 mph 29.9 mph N/A   Haze
11:35 AM -9.4 °F -37.7 °F -13.0 °F 84% 30.41 in 1.5 mi North 27.6 mph - N/A   Haze
11:55 AM -9.4 °F -36.3 °F -13.0 °F 84% 30.41 in 1.8 mi NNW 24.2 mph - N/A   Haze
12:15 PM -7.6 °F -35.3 °F -13.0 °F 77% 30.40 in 1.0 mi NNW 27.6 mph - N/A   Haze
12:35 PM -7.6 °F -33.4 °F -13.0 °F 77% 30.41 in 1.8 mi NNW 23.0 mph - N/A   Haze
12:55 PM -7.6 °F -32.9 °F -13.0 °F 77% 30.42 in 2.0 mi NNW 21.9 mph - N/A   Haze
1:15 PM -7.6 °F -33.4 °F -13.0 °F 77% 30.42 in 4.0 mi North 23.0 mph 26.5 mph N/A   Haze
1:35 PM -7.6 °F -33.4 °F -13.0 °F 77% 30.42 in 2.5 mi NNW 23.0 mph 29.9 mph N/A   Haze
1:55 PM -7.6 °F -33.4 °F -13.0 °F 77% 30.42 in 3.0 mi NNW 23.0 mph 29.9 mph N/A   Haze
2:15 PM -7.6 °F -32.9 °F -13.0 °F 77% 30.43 in 3.0 mi NNW 21.9 mph 27.6 mph N/A   Haze
2:35 PM -7.6 °F -31.1 °F -13.0 °F 77% 30.44 in 5.0 mi NNW 18.4 mph 28.8 mph N/A   Haze
2:55 PM -7.6 °F -32.9 °F -13.0 °F 77% 30.45 in 7.0 mi NNW 21.9 mph 25.3 mph N/A   Partly Cloudy
3:15 PM -7.6 °F -32.3 °F -13.0 °F 77% 30.45 in 9.0 mi NNW 20.7 mph 28.8 mph N/A   Mostly Cloudy
3:35 PM -7.6 °F -33.4 °F -13.0 °F 77% 30.46 in 10.0 mi NNW 23.0 mph 27.6 mph N/A   Overcast
3:55 PM -7.6 °F -30.5 °F -13.0 °F 77% 30.47 in 10.0 mi NNW 17.3 mph 23.0 mph N/A   Mostly Cloudy
4:15 PM -7.6 °F -30.5 °F -13.0 °F 77% 30.49 in 10.0 mi NW 17.3 mph - N/A   Scattered Clouds
4:35 PM -7.6 °F -31.1 °F -13.0 °F 77% 30.50 in 10.0 mi NW 18.4 mph 27.6 mph N/A   Mostly Cloudy
4:55 PM -7.6 °F -29.8 °F -13.0 °F 77% 30.51 in 10.0 mi NW 16.1 mph 19.6 mph N/A   Mostly Cloudy
5:15 PM -7.6 °F -29.8 °F -13.0 °F 77% 30.51 in 10.0 mi NNW 16.1 mph - N/A   Partly Cloudy
5:35 PM -7.6 °F -29.8 °F -13.0 °F 77% 30.51 in 10.0 mi NW 16.1 mph - N/A   Clear
5:55 PM -7.6 °F -29.1 °F -13.0 °F 77% 30.52 in 10.0 mi NW 15.0 mph - N/A   Clear
6:15 PM -7.6 °F -27.5 °F -13.0 °F 77% 30.54 in 10.0 mi NW 12.7 mph - N/A   Clear
6:35 PM -9.4 °F -29.8 °F -14.8 °F 77% 30.54 in 10.0 mi NW 12.7 mph - N/A   Clear
6:55 PM -9.4 °F -30.6 °F -14.8 °F 77% 30.55 in 10.0 mi NW 13.8 mph - N/A   Partly Cloudy
7:15 PM -9.4 °F -31.4 °F -14.8 °F 77% 30.56 in 10.0 mi NW 15.0 mph - N/A   Clear
7:35 PM -9.4 °F -32.1 °F -14.8 °F 77% 30.56 in 10.0 mi NNW 16.1 mph - N/A   Clear
7:55 PM -7.6 °F -27.5 °F -14.8 °F 71% 30.56 in 10.0 mi NNW 12.7 mph - N/A   Clear
8:15 PM -9.4 °F -32.1 °F -14.8 °F 77% 30.56 in 10.0 mi NNW 16.1 mph 21.9 mph N/A   Clear
8:35 PM -9.4 °F -32.1 °F -14.8 °F 77% 30.57 in 10.0 mi NNW 16.1 mph - N/A   Clear
8:55 PM -9.4 °F -30.6 °F -14.8 °F 77% 30.57 in 10.0 mi NNW 13.8 mph - N/A   Clear
9:15 PM -9.4 °F -31.4 °F -14.8 °F 77% 30.58 in 10.0 mi NNW 15.0 mph - N/A   Clear
9:35 PM -9.4 °F -31.4 °F -14.8 °F 77% 30.58 in 10.0 mi NNW 15.0 mph - N/A   Clear
9:55 PM -9.4 °F -28.9 °F -14.8 °F 77% 30.59 in 10.0 mi NNW 11.5 mph - N/A   Clear
10:15 PM -9.4 °F -27.9 °F -14.8 °F 77% 30.59 in 10.0 mi NNW 10.4 mph - N/A   Clear
10:35 PM -9.4 °F -26.8 °F -16.6 °F 71% 30.60 in 10.0 mi NW 9.2 mph - N/A   Clear
10:55 PM -9.4 °F -29.8 °F -16.6 °F 71% 30.61 in 10.0 mi NW 12.7 mph - N/A   Clear
11:15 PM -11.2 °F -32.1 °F -16.6 °F 77% 30.61 in 10.0 mi NW 12.7 mph - N/A   Clear
11:35 PM -11.2 °F -26.4 °F -18.4 °F 70% 30.62 in 10.0 mi NW 6.9 mph - N/A   Clear
11:55 PM -14.8 °F -32.2 °F -18.4 °F 84% 30.62 in 10.0 mi WNW 8.1 mph - N/A   Unknown